• In United Kingdom
  • List of Countries
  • For 7 days
  • Water Temperature
  • Satellite Maps
  • Weather Map
  • Weather Widgets
  • user-avatar
    Login

    Hourly Weather Villahermosa

    Today, 20 September, Wednesday

    Time Temperature Precipitation Wind Pressure Humidity
    00:00 +27°C° 0.3 mm 1 mps 758 mmHg 92%
    01:00 +27°C° 0.1 mm 1 mps 758 mmHg 93%
    02:00 +27°C° 0.1 mm 1 mps 758 mmHg 93%
    03:00 +26°C° 0.1 mm 1 mps 757 mmHg 94%
    04:00 +26°C° 0 mm 1 mps 757 mmHg 94%
    05:00 +26°C° 0 mm 1 mps 757 mmHg 94%
    06:00 +26°C° 0 mm 1 mps 758 mmHg 94%
    07:00 +27°C° 0 mm 1 mps 758 mmHg 89%
    08:00 +29°C° 0 mm 1 mps 758 mmHg 85%
    09:00 +30°C° 0 mm 1 mps 759 mmHg 80%
    10:00 +31°C° 0.1 mm 1 mps 758 mmHg 77%
    11:00 +32°C° 0.1 mm 1 mps 758 mmHg 74%
    12:00 +33°C° 0.1 mm 1 mps 758 mmHg 71%
    13:00 +33°C° 0.7 mm 1 mps 757 mmHg 71%
    14:00 +33°C° 0.7 mm 1 mps 756 mmHg 72%
    15:00 +33°C° 0.7 mm 1 mps 756 mmHg 73%
    16:00 +32°C° 0.7 mm 1 mps 756 mmHg 78%
    17:00 +31°C° 0.7 mm 1 mps 756 mmHg 83%
    18:00 +30°C° 0.7 mm 1 mps 756 mmHg 88%
    19:00 +29°C° 1.1 mm 1 mps 756 mmHg 90%
    20:00 +28°C° 1.1 mm 1 mps 757 mmHg 91%
    21:00 +28°C° 1.1 mm 1 mps 758 mmHg 93%
    22:00 +27°C° 1.5 mm 1 mps 758 mmHg 93%
    23:00 +27°C° 1.5 mm 1 mps 758 mmHg 93%

    Tomorrow, 21 September, Thursday

    Time Temperature Precipitation Wind Pressure Humidity
    00:00 +27°C° 1.5 mm 1 mps 758 mmHg 93%
    01:00 +27°C° 0.4 mm 1 mps 757 mmHg 93%
    02:00 +27°C° 0.4 mm 1 mps 757 mmHg 94%
    03:00 +26°C° 0.4 mm 1 mps 757 mmHg 94%
    04:00 +26°C° 0 mm 1 mps 757 mmHg 94%
    05:00 +26°C° 0 mm 1 mps 757 mmHg 94%
    06:00 +26°C° 0 mm 1 mps 757 mmHg 94%
    07:00 +27°C° 0 mm 1 mps 757 mmHg 89%
    08:00 +29°C° 0 mm 1 mps 758 mmHg 84%
    09:00 +30°C° 0 mm 1 mps 758 mmHg 80%
    10:00 +32°C° 0.1 mm 1 mps 758 mmHg 75%
    11:00 +33°C° 0.1 mm 1 mps 757 mmHg 71%
    12:00 +34°C° 0.1 mm 1 mps 757 mmHg 66%
    13:00 +34°C° 0.2 mm 1 mps 756 mmHg 66%
    14:00 +34°C° 0.2 mm 1 mps 756 mmHg 67%
    15:00 +35°C° 0.2 mm 2 mps 755 mmHg 67%
    16:00 +32°C° 0.8 mm 2 mps 755 mmHg 74%
    17:00 +31°C° 0.8 mm 2 mps 755 mmHg 81%
    18:00 +29°C° 0.8 mm 2 mps 755 mmHg 88%
    19:00 +29°C° 0.5 mm 2 mps 756 mmHg 89%
    20:00 +28°C° 0.5 mm 1 mps 757 mmHg 91%
    21:00 +27°C° 0.5 mm 1 mps 757 mmHg 92%
    22:00 +27°C° 0.1 mm 1 mps 757 mmHg 92%
    23:00 +27°C° 0.1 mm 1 mps 757 mmHg 93%

    Day after tomorrow, 22 September, Friday

    Time Temperature Precipitation Wind Pressure Humidity
    00:00 +27°C° 0.1 mm 1 mps 757 mmHg 93%
    01:00 +27°C° 0 mm 1 mps 757 mmHg 93%
    02:00 +26°C° 0 mm 1 mps 756 mmHg 93%
    03:00 +26°C° 0 mm 1 mps 756 mmHg 94%
    04:00 +26°C° 0 mm 1 mps 756 mmHg 94%
    05:00 +26°C° 0 mm 1 mps 756 mmHg 94%
    06:00 +26°C° 0 mm 1 mps 756 mmHg 94%
    07:00 +27°C° 0 mm 1 mps 756 mmHg 89%
    08:00 +29°C° 0 mm 1 mps 757 mmHg 84%
    09:00 +30°C° 0 mm 1 mps 757 mmHg 79%
    10:00 +31°C° 0.5 mm 1 mps 757 mmHg 75%
    11:00 +32°C° 0.5 mm 1 mps 756 mmHg 72%
    12:00 +34°C° 0.5 mm 1 mps 756 mmHg 68%
    13:00 +33°C° 0.4 mm 1 mps 755 mmHg 71%
    14:00 +34°C° 0.4 mm 2 mps 755 mmHg 73%
    15:00 +34°C° 0.4 mm 2 mps 754 mmHg 76%
    16:00 +32°C° 0.5 mm 2 mps 754 mmHg 80%
    17:00 +30°C° 0.5 mm 2 mps 754 mmHg 84%
    18:00 +29°C° 0.5 mm 2 mps 754 mmHg 88%
    19:00 +29°C° 0.4 mm 1 mps 755 mmHg 88%
    20:00 +28°C° 0.4 mm 1 mps 755 mmHg 89%
    21:00 +28°C° 0.4 mm 1 mps 756 mmHg 90%
    22:00 +27°C° 0.2 mm 1 mps 756 mmHg 91%
    23:00 +27°C° 0.2 mm 1 mps 756 mmHg 91%

    23 September, Saturday

    Time Temperature Precipitation Wind Pressure Humidity
    00:00 +27°C° 0.2 mm 1 mps 756 mmHg 92%
    01:00 +27°C° 0.1 mm 1 mps 755 mmHg 92%
    02:00 +26°C° 0.1 mm 1 mps 755 mmHg 93%
    03:00 +24°C° 0.1 mm 0 mps 755 mmHg 93%
    04:00 +26°C° 0 mm 1 mps 755 mmHg 93%
    05:00 +26°C° 0 mm 1 mps 755 mmHg 93%
    06:00 +26°C° 0 mm 1 mps 755 mmHg 93%
    07:00 +28°C° 0 mm 1 mps 756 mmHg 88%
    08:00 +29°C° 0 mm 1 mps 756 mmHg 82%
    09:00 +31°C° 0 mm 1 mps 756 mmHg 77%
    10:00 +32°C° 0.3 mm 1 mps 756 mmHg 73%
    11:00 +33°C° 0.3 mm 1 mps 756 mmHg 69%
    12:00 +34°C° 0.3 mm 1 mps 755 mmHg 65%
    13:00 +34°C° 0.5 mm 1 mps 754 mmHg 67%
    14:00 +35°C° 0.5 mm 2 mps 754 mmHg 69%
    15:00 +34°C° 0.5 mm 2 mps 753 mmHg 70%
    16:00 +32°C° 1.1 mm 2 mps 753 mmHg 76%
    17:00 +31°C° 1.1 mm 2 mps 754 mmHg 81%
    18:00 +29°C° 1.1 mm 1 mps 754 mmHg 87%
    19:00 +29°C° 0.2 mm 1 mps 754 mmHg 88%
    20:00 +28°C° 0.2 mm 1 mps 755 mmHg 89%
    21:00 +28°C° 0.2 mm 1 mps 755 mmHg 90%
    22:00 +27°C° 0.1 mm 1 mps 755 mmHg 91%
    23:00 +27°C° 0.1 mm 1 mps 755 mmHg 91%

    24 September, Sunday

    Time Temperature Precipitation Wind Pressure Humidity
    00:00 +27°C° 0.1 mm 1 mps 755 mmHg 92%
    01:00 +27°C° 0.1 mm 1 mps 755 mmHg 92%
    02:00 +26°C° 0.1 mm 1 mps 755 mmHg 93%
    03:00 +26°C° 0.1 mm 1 mps 754 mmHg 93%
    04:00 +26°C° 0 mm 1 mps 755 mmHg 93%
    05:00 +26°C° 0 mm 1 mps 755 mmHg 93%
    06:00 +26°C° 0 mm 1 mps 755 mmHg 93%
    07:00 +28°C° 0 mm 1 mps 755 mmHg 87%
    08:00 +29°C° 0 mm 1 mps 756 mmHg 82%
    09:00 +31°C° 0 mm 1 mps 756 mmHg 76%
    10:00 +32°C° 0.1 mm 1 mps 756 mmHg 72%
    11:00 +33°C° 0.1 mm 1 mps 755 mmHg 67%
    12:00 +35°C° 0.1 mm 1 mps 755 mmHg 62%
    13:00 +35°C° 0.2 mm 1 mps 754 mmHg 63%
    14:00 +35°C° 0.2 mm 1 mps 754 mmHg 63%
    15:00 +36°C° 0.2 mm 2 mps 753 mmHg 63%
    16:00 +34°C° 0.8 mm 2 mps 753 mmHg 71%
    17:00 +32°C° 0.8 mm 2 mps 753 mmHg 78%
    18:00 +30°C° 0.8 mm 2 mps 754 mmHg 86%
    19:00 +29°C° 0.2 mm 2 mps 754 mmHg 88%
    20:00 +29°C° 0.2 mm 2 mps 754 mmHg 89%
    21:00 +28°C° 0.2 mm 1 mps 755 mmHg 91%
    22:00 +28°C° 1.2 mm 2 mps 755 mmHg 91%
    23:00 +27°C° 1.2 mm 2 mps 755 mmHg 92%

    25 September, Monday

    Time Temperature Precipitation Wind Pressure Humidity
    00:00 +27°C° 1.2 mm 2 mps 755 mmHg 93%
    01:00 +27°C° 0.3 mm 2 mps 754 mmHg 92%
    02:00 +27°C° 0.3 mm 2 mps 754 mmHg 92%
    03:00 +26°C° 0.3 mm 1 mps 754 mmHg 91%
    04:00 +26°C° 0 mm 1 mps 754 mmHg 91%
    05:00 +26°C° 0 mm 1 mps 754 mmHg 90%
    06:00 +26°C° 0 mm 1 mps 755 mmHg 90%
    07:00 +28°C° 0 mm 1 mps 755 mmHg 85%
    08:00 +29°C° 0 mm 1 mps 755 mmHg 80%
    09:00 +31°C° 0 mm 1 mps 755 mmHg 75%
    10:00 +32°C° 0 mm 2 mps 755 mmHg 72%
    11:00 +34°C° 0 mm 2 mps 754 mmHg 68%
    12:00 +35°C° 0 mm 2 mps 754 mmHg 64%
    13:00 +35°C° 0 mm 2 mps 753 mmHg 64%
    14:00 +36°C° 0 mm 3 mps 753 mmHg 63%
    15:00 +36°C° 0 mm 3 mps 752 mmHg 63%
    16:00 +34°C° 0.3 mm 3 mps 752 mmHg 70%
    17:00 +33°C° 0.3 mm 3 mps 753 mmHg 77%
    18:00 +30°C° 0.3 mm 2 mps 753 mmHg 83%
    19:00 +30°C° 1.3 mm 2 mps 754 mmHg 86%
    20:00 +29°C° 1.3 mm 2 mps 754 mmHg 88%
    21:00 +28°C° 1.3 mm 2 mps 755 mmHg 90%
    22:00 +28°C° 0.8 mm 2 mps 755 mmHg 91%
    23:00 +28°C° 0.8 mm 2 mps 754 mmHg 91%
    Show more